Location: ??????????
(54.4061°N, 22.6114°E)
Time: 02:49:19
(UTC+00:00)

Cosmos 2297 Rocket - Pass Details

Date: 23 October 2019
Orbit: 840 x 842 km, 71.0° (Epoch: 19 November)

Event Time Altitude Azimuth Distance (km) Brightness Sun altitude
Rises 19:12:41 0° 326° (NW) 3,409 6.2 -34.3°
Reaches altitude 10° 19:15:18 10° 334° (NNW) 2,471 5.2 -34.6°
Enters shadow 19:18:17 28° 355° (N) 1,549 3.8 -35.0°
